TimeAKST,TemperatureF,Dew PointF,Humidity,Sea Level PressureIn,VisibilityMPH,Wind Direction,Wind SpeedMPH,Gust SpeedMPH,PrecipitationIn,Events,Conditions,WindDirDegrees,DateUTC
12:53 AM,26.1,26.1,100,29.31,10.0,Calm,Calm,-,N/A,,Overcast,0,2013-01-07 09:53:00
1:39 AM,33.8,32.0,93,29.36,7.0,SW,10.4,-,0.00,Snow,Light Snow,230,2013-01-07 10:39:00
1:48 AM,32.0,30.2,93,29.36,2.5,SW,10.4,-,0.00,Snow,Light Snow,230,2013-01-07 10:48:00
1:50 AM,32.0,30.2,93,29.36,3.0,SW,9.2,-,0.00,Snow,Light Snow,220,2013-01-07 10:50:00
1:53 AM,32.0,30.9,96,29.33,3.0,SSW,8.1,-,0.00,Snow,Light Snow,210,2013-01-07 10:53:00
2:12 AM,32.0,32.0,100,29.37,10.0,WNW,6.9,-,0.00,,Overcast,300,2013-01-07 11:12:00
3:15 AM,32.0,30.2,93,29.40,10.0,NW,8.1,-,N/A,,Overcast,310,2013-01-07 12:15:00
3:39 AM,33.8,30.2,87,29.41,10.0,WNW,9.2,-,N/A,,Overcast,300,2013-01-07 12:39:00
3:53 AM,33.1,30.9,92,29.38,10.0,WNW,10.4,-,N/A,,Overcast,300,2013-01-07 12:53:00
4:53 AM,28.9,23.0,78,29.41,10.0,NW,6.9,-,N/A,,Partly Cloudy,310,2013-01-07 13:53:00
5:53 AM,30.0,23.0,75,29.43,10.0,NW,10.4,-,N/A,,Partly Cloudy,310,2013-01-07 14:53:00
6:53 AM,33.1,28.9,85,29.46,10.0,WNW,11.5,-,N/A,,Mostly Cloudy,300,2013-01-07 15:53:00
7:05 AM,32.0,28.4,87,29.50,4.0,WNW,17.3,21.9,0.00,Snow,Light Snow,290,2013-01-07 16:05:00
7:21 AM,30.2,28.4,93,29.51,8.0,WNW,9.2,-,0.00,Snow,Light Snow,300,2013-01-07 16:21:00
7:53 AM,32.0,28.9,88,29.49,10.0,WNW,12.7,-,0.00,,Partly Cloudy,300,2013-01-07 16:53:00
8:53 AM,32.0,27.0,82,29.52,10.0,WNW,9.2,-,N/A,,Overcast,300,2013-01-07 17:53:00
9:53 AM,30.9,28.0,89,29.55,10.0,WNW,10.4,-,0.00,,Scattered Clouds,290,2013-01-07 18:53:00
10:26 AM,30.2,28.4,93,29.60,5.0,West,23.0,28.8,0.00,Snow,Light Snow,280,2013-01-07 19:26:00
10:41 AM,30.2,26.6,86,29.61,8.0,WNW,12.7,-,0.00,Snow,Light Snow,290,2013-01-07 19:41:00
10:53 AM,30.9,28.0,89,29.59,10.0,WNW,11.5,-,0.00,,Mostly Cloudy,290,2013-01-07 19:53:00
11:06 AM,30.2,28.4,93,29.63,1.5,WNW,21.9,31.1,0.00,Snow,Light Snow,290,2013-01-07 20:06:00
11:10 AM,28.4,26.6,93,29.63,0.5,WNW,19.6,31.1,0.00,Fog-Snow,Snow,300,2013-01-07 20:10:00
11:20 AM,28.4,26.6,93,29.63,1.0,WNW,10.4,-,0.00,Snow,Light Snow,300,2013-01-07 20:20:00
11:22 AM,28.4,26.6,93,29.63,2.0,WNW,10.4,-,0.00,Snow,Light Snow,300,2013-01-07 20:22:00
11:27 AM,28.4,26.6,93,29.64,8.0,WNW,10.4,-,0.00,Snow,Light Snow,300,2013-01-07 20:27:00
11:53 AM,30.9,28.0,89,29.62,9.0,WNW,9.2,-,0.00,,Partly Cloudy,290,2013-01-07 20:53:00
12:53 PM,30.9,27.0,85,29.64,10.0,WNW,18.4,-,0.00,,Partly Cloudy,290,2013-01-07 21:53:00
1:28 PM,30.2,26.6,86,29.69,1.0,WNW,19.6,31.1,0.00,Snow,Light Snow,290,2013-01-07 22:28:00
1:32 PM,30.2,26.6,86,29.70,0.8,WNW,12.7,31.1,0.00,Snow,Light Snow,290,2013-01-07 22:32:00
1:36 PM,30.2,26.6,86,29.69,1.2,WNW,17.3,25.3,0.00,Snow,Light Snow,290,2013-01-07 22:36:00
1:39 PM,30.2,28.4,93,29.70,4.0,West,12.7,21.9,0.00,Snow,Light Snow,280,2013-01-07 22:39:00
1:53 PM,32.0,28.0,85,29.66,10.0,West,18.4,24.2,0.00,,Scattered Clouds,280,2013-01-07 22:53:00
2:53 PM,32.0,26.1,79,29.68,8.0,West,19.6,29.9,N/A,,Overcast,280,2013-01-07 23:53:00
3:53 PM,33.1,26.1,75,29.70,10.0,West,17.3,23.0,N/A,,Overcast,280,2013-01-08 00:53:00
4:53 PM,33.1,26.1,75,29.73,10.0,West,17.3,-,N/A,,Overcast,280,2013-01-08 01:53:00
4:59 PM,32.0,26.6,80,29.76,1.8,West,17.3,27.6,0.00,Snow,Light Snow,270,2013-01-08 01:59:00
5:07 PM,32.0,26.6,80,29.76,3.0,West,15.0,-,0.00,Snow,Light Snow,270,2013-01-08 02:07:00
5:53 PM,33.1,23.0,66,29.74,10.0,West,20.7,27.6,0.00,,Overcast,260,2013-01-08 02:53:00
6:53 PM,33.1,26.1,75,29.77,10.0,West,16.1,-,N/A,,Overcast,280,2013-01-08 03:53:00
7:53 PM,33.1,24.1,70,29.78,10.0,WSW,19.6,24.2,N/A,,Overcast,250,2013-01-08 04:53:00
8:53 PM,33.1,26.1,75,29.80,10.0,SW,16.1,-,N/A,,Overcast,230,2013-01-08 05:53:00
9:53 PM,33.1,27.0,78,29.82,10.0,WSW,12.7,-,0.00,,Overcast,240,2013-01-08 06:53:00
10:53 PM,32.0,24.1,73,29.82,10.0,SW,8.1,-,N/A,,Mostly Cloudy,230,2013-01-08 07:53:00
11:53 PM,30.9,25.0,79,29.83,10.0,South,5.8,-,N/A,,Overcast,180,2013-01-08 08:53:00